Time,TemperatureF,DewpointF,PressureIn,WindDirection,WindDirectionDegrees,WindSpeedMPH,WindSpeedGustMPH,Humidity,HourlyPrecipIn,Conditions,Clouds,dailyrainin,SoftwareType,DateUTC
2013-08-10 00:12:00,73.2,72.0,29.84,WNW,282,9.0,14.0,96,0.00,,,0.02,weatherlink.com 1.10,2013-08-10 04:12:00,
2013-08-10 00:27:00,72.9,72.0,29.84,WSW,247,2.0,9.0,96,0.00,,,0.02,weatherlink.com 1.10,2013-08-10 04:27:00,
2013-08-10 00:42:00,72.7,72.0,29.84,WNW,286,3.0,9.0,96,0.00,,,0.02,weatherlink.com 1.10,2013-08-10 04:42:00,
2013-08-10 00:57:00,72.7,72.0,29.83,WSW,252,8.0,11.0,96,0.00,,,0.02,weatherlink.com 1.10,2013-08-10 04:57:00,
2013-08-10 01:12:00,72.7,72.0,29.83,WSW,253,2.0,12.0,96,0.00,,,0.02,weatherlink.com 1.10,2013-08-10 05:12:00,
2013-08-10 01:27:00,72.7,72.0,29.84,West,260,7.0,10.0,96,0.00,,,0.02,weatherlink.com 1.10,2013-08-10 05:27:00,
2013-08-10 01:42:00,72.7,72.0,29.83,West,265,3.0,13.0,96,0.00,,,0.02,weatherlink.com 1.10,2013-08-10 05:42:00,
2013-08-10 01:57:00,72.7,72.0,29.83,WSW,250,8.0,11.0,96,0.00,,,0.02,weatherlink.com 1.10,2013-08-10 05:57:00,
2013-08-10 02:12:00,72.5,71.0,29.83,WNW,282,3.0,9.0,96,0.00,,,0.02,weatherlink.com 1.10,2013-08-10 06:12:00,
2013-08-10 02:27:00,72.2,71.0,29.83,West,278,3.0,11.0,96,0.00,,,0.02,weatherlink.com 1.10,2013-08-10 06:27:00,
2013-08-10 02:42:00,72.2,71.0,29.84,West,269,3.0,10.0,96,0.00,,,0.02,weatherlink.com 1.10,2013-08-10 06:42:00,
2013-08-10 02:57:00,72.0,71.0,29.84,NNW,335,6.0,8.0,96,0.00,,,0.02,weatherlink.com 1.10,2013-08-10 06:57:00,
2013-08-10 03:12:00,72.1,71.0,29.84,WNW,296,5.0,9.0,96,0.00,,,0.02,weatherlink.com 1.10,2013-08-10 07:12:00,
2013-08-10 03:27:00,71.9,71.0,29.84,West,274,3.0,8.0,96,0.00,,,0.02,weatherlink.com 1.10,2013-08-10 07:27:00,
2013-08-10 03:42:00,71.8,71.0,29.85,WNW,290,2.0,8.0,96,0.00,,,0.02,weatherlink.com 1.10,2013-08-10 07:42:00,
2013-08-10 03:57:00,71.8,71.0,29.85,West,273,2.0,7.0,96,0.00,,,0.00,weatherlink.com 1.10,2013-08-10 07:57:00,
2013-08-10 04:12:00,71.8,71.0,29.85,WNW,297,3.0,8.0,96,0.00,,,0.00,weatherlink.com 1.10,2013-08-10 08:12:00,
2013-08-10 04:27:00,71.7,71.0,29.85,West,262,2.0,8.0,96,0.00,,,0.00,weatherlink.com 1.10,2013-08-10 08:27:00,
2013-08-10 04:42:00,71.5,70.0,29.86,West,275,5.0,8.0,96,0.00,,,0.00,weatherlink.com 1.10,2013-08-10 08:42:00,
2013-08-10 04:57:00,71.2,70.0,29.86,West,281,4.0,8.0,96,0.00,,,0.00,weatherlink.com 1.10,2013-08-10 08:57:00,
2013-08-10 05:12:00,70.9,70.0,29.86,West,267,1.0,6.0,96,0.00,,,0.00,weatherlink.com 1.10,2013-08-10 09:12:00,
2013-08-10 05:27:00,71.0,70.0,29.87,WNW,297,4.0,6.0,96,0.00,,,0.00,weatherlink.com 1.10,2013-08-10 09:27:00,
2013-08-10 05:42:00,70.7,69.0,29.88,WNW,288,3.0,8.0,95,0.00,,,0.00,weatherlink.com 1.10,2013-08-10 09:42:00,
2013-08-10 05:57:00,70.4,69.0,29.88,West,281,3.0,6.0,95,0.00,,,0.00,weatherlink.com 1.10,2013-08-10 09:57:00,
2013-08-10 06:12:00,70.2,68.0,29.88,NW,307,4.0,8.0,92,0.00,,,0.00,weatherlink.com 1.10,2013-08-10 10:12:00,
2013-08-10 06:27:00,70.3,67.0,29.89,NW,311,3.0,9.0,90,0.00,,,0.00,weatherlink.com 1.10,2013-08-10 10:27:00,
2013-08-10 06:42:00,70.3,66.0,29.89,NNW,327,5.0,7.0,87,0.00,,,0.00,weatherlink.com 1.10,2013-08-10 10:42:00,
2013-08-10 06:57:00,70.5,67.0,29.90,NW,304,2.0,7.0,88,0.00,,,0.00,weatherlink.com 1.10,2013-08-10 10:57:00,
2013-08-10 07:12:00,70.4,68.0,29.90,WNW,290,3.0,6.0,91,0.00,,,0.00,weatherlink.com 1.10,2013-08-10 11:12:00,
2013-08-10 07:27:00,71.3,69.0,29.90,WNW,285,2.0,9.0,91,0.00,,,0.00,weatherlink.com 1.10,2013-08-10 11:27:00,
2013-08-10 07:43:00,72.0,68.0,29.91,NW,321,7.0,9.0,88,0.00,,,0.00,weatherlink.com 1.10,2013-08-10 11:43:00,
2013-08-10 07:58:00,72.8,68.0,29.91,WNW,285,9.0,9.0,86,0.00,,,0.00,weatherlink.com 1.10,2013-08-10 11:58:00,
2013-08-10 08:13:00,72.6,68.0,29.91,NNW,340,6.0,9.0,84,0.00,,,0.00,weatherlink.com 1.10,2013-08-10 12:13:00,
2013-08-10 08:28:00,73.1,68.0,29.91,NW,323,5.0,8.0,83,0.00,,,0.00,weatherlink.com 1.10,2013-08-10 12:28:00,
2013-08-10 08:43:00,74.2,68.0,29.91,West,269,3.0,8.0,81,0.00,,,0.00,weatherlink.com 1.10,2013-08-10 12:43:00,
2013-08-10 08:58:00,75.0,67.0,29.91,WNW,295,3.0,8.0,77,0.00,,,0.00,weatherlink.com 1.10,2013-08-10 12:58:00,
2013-08-10 09:13:00,75.3,69.0,29.92,WSW,255,6.0,9.0,80,0.00,,,0.00,weatherlink.com 1.10,2013-08-10 13:13:00,
2013-08-10 09:28:00,75.3,67.0,29.92,West,267,4.0,9.0,76,0.00,,,0.00,weatherlink.com 1.10,2013-08-10 13:28:00,
2013-08-10 09:43:00,75.8,67.0,29.92,NW,310,5.0,11.0,73,0.00,,,0.00,weatherlink.com 1.10,2013-08-10 13:43:00,
2013-08-10 09:58:00,77.3,65.0,29.92,WNW,288,7.0,11.0,67,0.00,,,0.00,weatherlink.com 1.10,2013-08-10 13:58:00,
2013-08-10 10:13:00,77.6,63.0,29.93,NNE,20,5.0,14.0,62,0.00,,,0.00,weatherlink.com 1.10,2013-08-10 14:13:00,
2013-08-10 10:28:00,78.0,63.0,29.93,WNW,293,4.0,11.0,60,0.00,,,0.00,weatherlink.com 1.10,2013-08-10 14:28:00,
2013-08-10 10:43:00,78.0,63.0,29.93,WSW,248,10.0,11.0,61,0.00,,,0.00,weatherlink.com 1.10,2013-08-10 14:43:00,
2013-08-10 10:58:00,78.2,63.0,29.93,WSW,255,8.0,11.0,60,0.00,,,0.00,weatherlink.com 1.10,2013-08-10 14:58:00,
2013-08-10 11:13:00,78.5,65.0,29.93,NNW,328,6.0,10.0,63,0.00,,,0.00,weatherlink.com 1.10,2013-08-10 15:13:00,
2013-08-10 11:28:00,78.9,65.0,29.93,North,6,2.0,7.0,62,0.00,,,0.00,weatherlink.com 1.10,2013-08-10 15:28:00,
2013-08-10 11:43:00,78.9,63.0,29.93,NNW,329,2.0,9.0,59,0.00,,,0.00,weatherlink.com 1.10,2013-08-10 15:43:00,
2013-08-10 11:58:00,79.4,65.0,29.93,West,274,5.0,8.0,62,0.00,,,0.00,weatherlink.com 1.10,2013-08-10 15:58:00,
2013-08-10 12:13:00,78.9,65.0,29.93,West,280,8.0,10.0,62,0.00,,,0.00,weatherlink.com 1.10,2013-08-10 16:13:00,
2013-08-10 12:28:00,78.7,65.0,29.93,NNW,328,5.0,11.0,64,0.00,,,0.00,weatherlink.com 1.10,2013-08-10 16:28:00,
2013-08-10 12:43:00,78.7,65.0,29.93,WNW,302,5.0,9.0,64,0.00,,,0.00,weatherlink.com 1.10,2013-08-10 16:43:00,
2013-08-10 12:59:00,79.3,64.0,29.93,West,269,8.0,11.0,60,0.00,,,0.00,weatherlink.com 1.10,2013-08-10 16:59:00,
2013-08-10 13:13:00,79.1,64.0,29.93,West,261,5.0,12.0,60,0.00,,,0.00,weatherlink.com 1.10,2013-08-10 17:13:00,
2013-08-10 13:28:00,79.8,65.0,29.93,West,262,4.0,8.0,61,0.00,,,0.00,weatherlink.com 1.10,2013-08-10 17:28:00,
2013-08-10 13:43:00,79.6,66.0,29.93,South,178,0.0,11.0,63,0.00,,,0.00,weatherlink.com 1.10,2013-08-10 17:43:00,
2013-08-10 13:58:00,79.4,65.0,29.93,West,259,5.0,13.0,62,0.00,,,0.00,weatherlink.com 1.10,2013-08-10 17:58:00,
2013-08-10 14:13:00,79.2,65.0,29.93,West,273,3.0,10.0,63,0.00,,,0.00,weatherlink.com 1.10,2013-08-10 18:13:00,
2013-08-10 14:28:00,79.5,67.0,29.93,NW,321,7.0,10.0,65,0.00,,,0.00,weatherlink.com 1.10,2013-08-10 18:28:00,
2013-08-10 14:43:00,78.7,67.0,29.93,West,276,3.0,14.0,67,0.00,,,0.00,weatherlink.com 1.10,2013-08-10 18:43:00,
2013-08-10 14:58:00,78.3,66.0,29.93,NW,314,6.0,9.0,67,0.00,,,0.00,weatherlink.com 1.10,2013-08-10 18:58:00,
2013-08-10 15:13:00,76.1,66.0,29.94,WSW,256,2.0,14.0,70,0.00,,,0.00,weatherlink.com 1.10,2013-08-10 19:13:00,
2013-08-10 15:28:00,77.6,67.0,29.93,West,262,2.0,12.0,69,0.00,,,0.00,weatherlink.com 1.10,2013-08-10 19:28:00,
2013-08-10 15:43:00,76.7,66.0,29.93,South,191,0.0,12.0,70,0.00,,,0.00,weatherlink.com 1.10,2013-08-10 19:43:00,
2013-08-10 15:58:00,76.8,66.0,29.94,NW,315,4.0,12.0,70,0.00,,,0.00,weatherlink.com 1.10,2013-08-10 19:58:00,
2013-08-10 16:13:00,76.9,66.0,29.94,WNW,299,5.0,14.0,69,0.00,,,0.00,weatherlink.com 1.10,2013-08-10 20:13:00,
2013-08-10 16:29:00,77.6,66.0,29.94,SSW,197,10.0,19.0,68,0.00,,,0.00,weatherlink.com 1.10,2013-08-10 20:29:00,
2013-08-10 16:44:00,77.8,66.0,29.95,SW,224,1.0,14.0,67,0.00,,,0.00,weatherlink.com 1.10,2013-08-10 20:44:00,
2013-08-10 16:59:00,77.0,66.0,29.95,WNW,292,4.0,17.0,68,0.00,,,0.00,weatherlink.com 1.10,2013-08-10 20:59:00,
2013-08-10 17:14:00,75.8,66.0,29.95,West,260,5.0,11.0,71,0.00,,,0.00,weatherlink.com 1.10,2013-08-10 21:14:00,
2013-08-10 17:30:00,76.8,67.0,29.94,West,280,7.0,16.0,71,0.00,,,0.00,weatherlink.com 1.10,2013-08-10 21:30:00,
2013-08-10 17:44:00,76.5,66.0,29.94,WNW,303,3.0,14.0,71,0.00,,,0.00,weatherlink.com 1.10,2013-08-10 21:44:00,
2013-08-10 17:59:00,76.3,65.0,29.94,West,280,7.0,11.0,69,0.00,,,0.00,weatherlink.com 1.10,2013-08-10 21:59:00,
2013-08-10 18:14:00,76.2,65.0,29.94,WSW,246,8.0,11.0,68,0.00,,,0.00,weatherlink.com 1.10,2013-08-10 22:14:00,
2013-08-10 18:29:00,75.8,64.0,29.95,South,181,4.0,11.0,68,0.00,,,0.00,weatherlink.com 1.10,2013-08-10 22:29:00,
2013-08-10 18:44:00,75.3,64.0,29.95,West,266,3.0,12.0,69,0.00,,,0.00,weatherlink.com 1.10,2013-08-10 22:44:00,
2013-08-10 18:59:00,74.3,65.0,29.95,WNW,292,1.0,12.0,72,0.00,,,0.00,weatherlink.com 1.10,2013-08-10 22:59:00,
2013-08-10 19:14:00,73.4,65.0,29.95,WSW,251,4.0,11.0,75,0.00,,,0.00,weatherlink.com 1.10,2013-08-10 23:14:00,
2013-08-10 19:29:00,72.7,65.0,29.96,South,187,0.0,9.0,77,0.00,,,0.00,weatherlink.com 1.10,2013-08-10 23:29:00,
2013-08-10 19:44:00,72.1,65.0,29.96,SW,231,2.0,8.0,78,0.00,,,0.00,weatherlink.com 1.10,2013-08-10 23:44:00,
2013-08-10 19:59:00,71.8,65.0,29.96,WNW,294,3.0,9.0,78,0.00,,,0.00,weatherlink.com 1.10,2013-08-10 23:59:00,
2013-08-10 20:14:00,71.8,65.0,29.97,West,276,4.0,8.0,78,0.00,,,0.00,weatherlink.com 1.10,2013-08-11 00:14:00,
2013-08-10 20:29:00,71.9,65.0,29.98,WSW,239,3.0,8.0,79,0.00,,,0.00,weatherlink.com 1.10,2013-08-11 00:29:00,
2013-08-10 20:44:00,71.7,65.0,29.99,NW,319,2.0,8.0,80,0.00,,,0.00,weatherlink.com 1.10,2013-08-11 00:44:00,
2013-08-10 20:59:00,70.8,66.0,29.99,West,267,4.0,8.0,84,0.00,,,0.00,weatherlink.com 1.10,2013-08-11 00:59:00,
2013-08-10 21:14:00,69.9,66.0,30.00,NW,316,3.0,4.0,86,0.00,,,0.00,weatherlink.com 1.10,2013-08-11 01:14:00,
2013-08-10 21:29:00,69.1,66.0,30.00,WNW,302,2.0,4.0,89,0.00,,,0.00,weatherlink.com 1.10,2013-08-11 01:29:00,
2013-08-10 21:44:00,68.6,65.0,30.00,WNW,302,1.0,1.0,89,0.00,,,0.00,weatherlink.com 1.10,2013-08-11 01:44:00,
2013-08-10 21:59:00,67.7,64.0,30.00,West,281,1.0,1.0,88,0.00,,,0.00,weatherlink.com 1.10,2013-08-11 01:59:00,
2013-08-10 22:14:00,68.4,63.0,30.01,WNW,288,0.0,4.0,82,0.00,,,0.00,weatherlink.com 1.10,2013-08-11 02:14:00,
2013-08-10 22:29:00,68.4,62.0,30.01,NW,308,0.0,1.0,81,0.00,,,0.00,weatherlink.com 1.10,2013-08-11 02:29:00,
2013-08-10 22:44:00,67.3,62.0,30.01,WNW,288,1.0,3.0,82,0.00,,,0.00,weatherlink.com 1.10,2013-08-11 02:44:00,
2013-08-10 22:59:00,66.7,62.0,30.02,WNW,288,0.0,1.0,85,0.00,,,0.00,weatherlink.com 1.10,2013-08-11 02:59:00,
2013-08-10 23:14:00,65.9,62.0,30.02,WNW,288,0.0,1.0,87,0.00,,,0.00,weatherlink.com 1.10,2013-08-11 03:14:00,
2013-08-10 23:44:00,66.7,60.0,30.03,WNW,288,0.0,2.0,79,0.00,,,0.00,weatherlink.com 1.10,2013-08-11 03:44:00,